This is the latest recevied weather packets stored in our database for station/object AC4AG. If no packets are shown the sender has not sent any weather packets the latest 1 day(s).
| Time | Temp. | Humidity | Pressure | Rain* | Wind** | Luminosity | Snow |
|---|---|---|---|---|---|---|---|
| 1778062158 | 15° C | 99% | 1007.7 hPa | 6.6 mm | - | 0 W/m² | - |
| 1778061856 | 15° C | 99% | 1007.5 hPa | 4.83 mm | - | 0 W/m² | - |
| 1778061554 | 15° C | 99% | 1007.6 hPa | 10.16 mm | - | 0 W/m² | - |
| 1778060948 | 15° C | 99% | 1007.5 hPa | 13.72 mm | - | 0 W/m² | - |
| 1778060647 | 15° C | 99% | 1007.6 hPa | 22.86 mm | - | 0 W/m² | - |
| 1778060344 | 15° C | 99% | 1007.5 hPa | 18.03 mm | - | 0 W/m² | - |
| 1778059739 | 15° C | 99% | 1007.6 hPa | 15.49 mm | - | 0 W/m² | - |
| 1778059437 | 15° C | 99% | 1007.7 hPa | 8.89 mm | - | 0 W/m² | - |
| 1778059133 | 15° C | 99% | 1007.4 hPa | 4.83 mm | - | 0 W/m² | - |
| 1778058528 | 15° C | 99% | 1007 hPa | 1.27 mm | - | 0 W/m² | - |
| 1778058226 | 15° C | 99% | 1007.1 hPa | 1.27 mm | - | 0 W/m² | - |
| 1778057012 | 15° C | 99% | 1006.7 hPa | 1.78 mm | - | 0 W/m² | - |
| 1778056709 | 15.56° C | 99% | 1006.6 hPa | 1.78 mm | - | 0 W/m² | - |
| 1778055800 | 15.56° C | 94% | 1006.5 hPa | 1.78 mm | - | 0 W/m² | - |
| 1778054892 | 15.56° C | 95% | 1006.4 hPa | 0 mm | - | 0 W/m² | - |
| 1778054588 | 15.56° C | 94% | 1006.1 hPa | 0 mm | - | 0 W/m² | - |
| 1778054286 | 15.56° C | 93% | 1005.9 hPa | 0 mm | - | 0 W/m² | - |
| 1778053680 | 15.56° C | 93% | 1006.1 hPa | 1.27 mm | - | 0 W/m² | - |
| 1778053377 | 15.56° C | 92% | 1006.1 hPa | 1.27 mm | - | 0 W/m² | - |
| 1778052772 | 15.56° C | 92% | 1005.9 hPa | 0 mm | - | 0 W/m² | - |
| 1778052469 | 15.56° C | 91% | 1006.2 hPa | 1.78 mm | - | 0 W/m² | - |
| 1778051864 | 16.11° C | 89% | 1005.9 hPa | 1.78 mm | - | 0 W/m² | - |
| 1778051562 | 16.11° C | 87% | 1005.9 hPa | 0 mm | - | 0 W/m² | - |
| 1778051258 | 16.11° C | 87% | 1005.7 hPa | 0 mm | - | 0 W/m² | - |
| 1778050955 | 16.11° C | 88% | 1005.9 hPa | 0 mm | - | 0 W/m² | - |
* Rain latest hour (hover to see other rain measurements)
** Current wind speed in m/s (hover to see current wind gust speed)